ARKTIKA-M 1
Last updated on Fri Jun 19 2026 17:09:13 GMT+0000 (Coordinated Universal Time)
1 47719U 21016A 26168.49069990 -.00000210 00000+0 00000+0 0 9999
2 47719 63.2922 57.5948 7288528 269.9420 14.6012 2.00622504 38796
Next 0 passes for location: London (51.5072 / 0.1276)
No passes found over London.